Waarnemingen

Advertentie
Mijn weer
Agen, Frankrijk (7524): temperatuur & dauwpunt: 19.04.2018 12:00:00 - 25.04.2018 12:00:00 (CEST)Agen, Frankrijk (7524): temperatuur 5cm: 19.04.2018 12:00:00 - 25.04.2018 12:00:00 (CEST)Agen, Frankrijk (7524): temperatuur -20cm & temperatuur -100cm: 19.04.2018 12:00:00 - 25.04.2018 12:00:00 (CEST)Agen, Frankrijk (7524): windsnelheid & windstoten: 19.04.2018 12:00:00 - 25.04.2018 12:00:00 (CEST)Agen, Frankrijk (7524): windrichting: 19.04.2018 12:00:00 - 25.04.2018 12:00:00 (CEST)Agen, Frankrijk (7524): luchtdruk: 19.04.2018 12:00:00 - 25.04.2018 12:00:00 (CEST)Agen, Frankrijk (7524): zicht: 19.04.2018 12:00:00 - 25.04.2018 12:00:00 (CEST)Agen, Frankrijk (7524): Zonneschijnduur: 19.04.2018 12:00:00 - 25.04.2018 12:00:00 (CEST)Agen, Frankrijk (7524): neerslag: 19.04.2018 12:00:00 - 25.04.2018 12:00:00 (CEST)
Datum & Tijd tt [°C] td [°C] tt 5cm [°C] tt -20cm [°C] tt -100cm [°C] ff [km/u] ff [kn] fx [km/u] fx [kn] dd ppp [hPa] vv [km] sd [min] rr [mm]
25.04.2018 12:00:00 14,8 12,5 15,7 16,3 13,1 19 10 29 16 NW 1022,9 60 0 0,0
25.04.2018 11:00:00 15,1 12,2 15,5 16,4 13,1 14 7 25 13 W 1022,4 48 0 0,0
25.04.2018 10:00:00 13,8 12,2 14,4 16,5 13,0 9 5 15 8 W 1022,0 7 0 0,0
25.04.2018 09:00:00 13,2 11,8 13,0 16,5 13,0 12 6 16 9 W 1021,2 17 0 0,0
25.04.2018 08:00:00 12,7 11,4 12,2 16,6 13,0 8 4 20 11 WNW 1020,5 18 0 0,0
25.04.2018 07:00:00 12,6 11,2 11,9 16,7 13,0 11 6 27 15 W 1019,9 21 0 0,0
25.04.2018 06:00:00 12,7 11,1 11,5 16,8 13,0 19 10 28 15 W 1019,5 22 0 0,0
25.04.2018 05:00:00 12,9 11,5 11,9 16,9 13,0 18 10 32 17 WNW 1018,7 19 0 0,0
25.04.2018 04:00:00 13,8 12,4 12,5 17,0 13,0 18 10 32 17 W 1018,1 17 0 0,0
25.04.2018 03:00:00 14,6 13,8 8,8 17,1 13,0 10 5 20 11 W 1017,5 15 0 0,0
25.04.2018 02:00:00 13,7 12,8 8,5 17,1 13,0 0 0 6 3 N 1017,1 17 0 0,0
25.04.2018 01:00:00 13,9 12,6 9,4 17,2 13,0 4 2 10 5 O 1017,1 20 0 0,0
25.04.2018 00:00:00 15,1 13,3 10,0 17,2 12,9 4 2 5 3 O 1017,0 22 0 0,0
24.04.2018 23:00:00 15,9 13,6 10,5 17,1 12,9 0 0 3 2 N 1017,2 20 0 0,0
24.04.2018 22:00:00 17,8 13,9 12,3 17,1 12,9 3 1 8 4 ZZW 1016,7 26 0 0,0
24.04.2018 21:00:00 21,4 13,8 15,4 17,0 12,9 2 1 4 2 Z 1016,1 20 30 0,0
24.04.2018 20:00:00 24,4 13,6 25,0 16,8 12,9 3 1 9 5 O 1015,9 35 60 0,0
24.04.2018 19:00:00 25,0 13,9 30,5 16,6 12,9 3 2 10 5 ZO 1016,0 43 60 0,0
24.04.2018 18:00:00 25,5 13,7 35,5 16,4 12,9 4 2 16 9 NNW 1016,5 39 60 0,0
24.04.2018 17:00:00 25,4 14,2 39,1 16,2 12,9 3 2 11 6 NNO 1017,0 19 60 0,0
24.04.2018 16:00:00 24,5 14,6 39,6 16,0 12,9 6 4 16 9 NO 1018,0 42 60 0,0
24.04.2018 15:00:00 23,6 14,3 36,5 15,9 12,9 8 4 17 9 NO 1018,8 19 57 0,0
24.04.2018 14:00:00 22,8 14,1 38,0 15,9 12,8 9 5 18 10 O 1019,4 34 60 0,0
24.04.2018 13:00:00 22,3 13,1 35,9 15,8 12,8 7 4 13 7 O 1020,2 20 56 0,0
24.04.2018 12:00:00 19,9 14,3 26,0 15,8 12,8 2 1 9 5 NW 1020,8 20 13 0,0
24.04.2018 11:00:00 17,7 14,0 21,8 15,9 12,8 2 1 7 4 WNW 1021,1 19 0 0,0
24.04.2018 10:00:00 16,0 13,8 17,6 15,9 12,8 4 2 8 4 NW 1021,1 19 0 0,0
24.04.2018 09:00:00 15,2 13,6 14,5 15,9 12,8 5 3 8 4 WNW 1021,1 17 8 0,0
24.04.2018 08:00:00 14,4 13,1 13,1 16,0 12,8 5 3 7 4 WNW 1020,7 15 13 0,0
24.04.2018 07:00:00 14,4 13,1 13,0 16,0 12,8 4 2 10 5 W 1020,2 13 0 0,0
24.04.2018 06:00:00 14,5 13,2 13,7 16,1 12,8 8 4 9 5 WNW 1020,2 15 0 0,0
24.04.2018 05:00:00 14,8 13,5 14,0 16,1 12,7 7 4 10 5 WNW 1020,5 13 0 0,0
24.04.2018 04:00:00 14,9 13,6 13,9 16,2 12,7 4 2 7 4 WNW 1020,6 12 0 0,0
24.04.2018 03:00:00 14,6 13,5 11,1 16,3 12,7 6 3 8 4 WNW 1021,0 10 0 0,0
24.04.2018 02:00:00 13,9 13,1 8,6 16,3 12,7 5 3 6 4 W 1021,3 11 0 0,0
24.04.2018 01:00:00 13,9 12,6 8,7 16,3 12,7 3 1 5 3 WNW 1021,4 13 0 0,0
24.04.2018 00:00:00 14,7 12,6 9,8 16,4 12,7 2 1 10 5 W 1021,5 16 0 0,0
23.04.2018 23:00:00 16,3 13,6 12,2 16,4 12,7 9 5 11 6 W 1021,2 19 0 0,0
23.04.2018 22:00:00 16,6 13,7 12,1 16,3 12,7 5 3 10 5 W 1020,9 20 0 0,0
23.04.2018 21:00:00 17,4 13,7 14,7 16,2 12,7 8 4 20 11 NW 1020,4 22 10 0,0
23.04.2018 20:00:00 19,9 14,5 20,9 16,1 12,6 14 7 20 11 NNW 1019,7 27 60 0,0
23.04.2018 19:00:00 21,3 14,9 25,0 16,0 12,6 11 6 20 11 NW 1019,7 20 51 0,0
23.04.2018 18:00:00 21,3 14,9 24,9 15,9 12,6 10 5 19 10 WNW 1019,7 20 6 0,0
23.04.2018 17:00:00 21,7 14,3 28,0 15,8 12,6 12 6 20 11 WNW 1019,8 29 32 0,0
23.04.2018 16:00:00 21,8 15,4 28,0 15,6 12,6 9 5 20 11 NNW 1020,1 20 32 0,0
23.04.2018 15:00:00 21,1 14,5 28,7 15,6 12,6 8 4 16 9 WNW 1020,6 24 19 0,0
23.04.2018 14:00:00 20,7 13,9 31,1 15,6 12,6 7 4 17 9 WNW 1020,8 40 48 0,0
23.04.2018 13:00:00 19,6 14,8 26,9 15,6 12,6 7 4 17 9 WNW 1021,1 19 41 0,0
23.04.2018 12:00:00 18,2 14,1 22,3 15,5 12,6 12 7 19 10 WNW 1021,3 19 27 0,0
23.04.2018 11:00:00 17,6 14,3 20,0 15,6 12,6 14 8 24 13 NW 1021,3 15 38 0,0
23.04.2018 10:00:00 16,5 14,0 17,1 15,6 12,6 15 8 22 12 WNW 1021,0 19 38 0,0
23.04.2018 09:00:00 15,9 13,9 13,5 15,7 12,5 9 5 15 8 WNW 1020,3 15 50 0,0
23.04.2018 08:00:00 14,4 12,9 12,5 15,7 12,6 8 4 13 7 WZW 1020,2 15 0 0,0
23.04.2018 07:00:00 14,4 12,9 12,0 15,8 12,5 8 4 12 7 WZW 1019,6 15 0 0,0
23.04.2018 06:00:00 15,3 13,3 13,0 15,8 12,5 4 2 9 5 ZW 1018,8 16 0 1,0
23.04.2018 05:00:00 16,5 12,6 14,4 15,9 12,5 6 3 10 5 WZW 1018,9 24 0 0,0
23.04.2018 04:00:00 16,6 13,7 14,8 15,9 12,5 6 4 15 8 W 1018,6 19 0 0,0
23.04.2018 03:00:00 17,5 13,0 14,8 15,9 12,5 9 5 13 7 W 1018,3 24 0 0,0
23.04.2018 02:00:00 18,3 12,5 16,2 16,0 12,5 8 4 24 13 NW 1017,4 29 0 0,0
23.04.2018 01:00:00 19,1 12,6 14,3 15,9 12,5 9 5 13 7 W 1018,2 29 0 0,0
23.04.2018 00:00:00 18,6 14,1 14,7 15,9 12,5 5 3 11 6 WNW 1017,4 29 0 0,0
22.04.2018 23:00:00 18,9 14,2 16,4 15,9 12,5 5 3 8 4 WNW 1016,9 30 0 0,0
22.04.2018 22:00:00 20,1 13,5 16,9 15,8 12,5 2 1 5 3 WNW 1016,0 35 0 0,0
22.04.2018 21:00:00 21,7 12,8 17,4 15,7 12,5 2 1 12 6 ZZO 1015,0 40 0 0,0
22.04.2018 20:00:00 22,7 14,0 21,3 15,5 12,4 6 4 9 5 O 1014,7 39 0 0,0
22.04.2018 19:00:00 24,7 12,3 25,7 15,3 12,4 3 2 12 6 ONO 1014,3 18 0 0,0
22.04.2018 18:00:00 25,2 12,4 28,5 15,1 12,4 8 4 13 7 WNW 1014,3 48 25 0,0
22.04.2018 17:00:00 26,4 11,3 39,7 15,0 12,4 9 5 14 8 NW 1014,6 43 60 0,0
22.04.2018 16:00:00 26,7 10,4 40,5 14,8 12,4 4 2 12 7 ZZO 1015,0 18 60 0,0
22.04.2018 15:00:00 25,0 12,9 38,9 14,7 12,4 6 3 14 8 O 1015,7 20 60 0,0
22.04.2018 14:00:00 23,5 13,7 30,9 14,6 12,4 10 5 16 8 O 1016,4 18 53 0,0
22.04.2018 13:00:00 21,0 12,7 26,9 14,6 12,4 5 3 13 7 O 1016,9 19 17 0,0
22.04.2018 12:00:00 19,1 12,4 21,6 14,7 12,4 6 3 15 8 OZO 1017,1 35 0 0,0
22.04.2018 11:00:00 17,2 11,7 19,5 14,7 12,4 12 7 19 10 O 1017,0 34 0 0,0
22.04.2018 10:00:00 15,8 10,8 15,8 14,8 12,4 13 7 18 10 O 1016,9 40 3 0,0
22.04.2018 09:00:00 14,1 11,3 11,8 14,8 12,4 10 5 15 8 OZO 1016,9 32 0 0,0
22.04.2018 08:00:00 12,8 10,9 11,1 14,9 12,4 6 3 9 5 OZO 1016,7 33 0 0,0
22.04.2018 07:00:00 12,3 10,7 10,3 15,0 12,3 7 4 10 5 O 1016,1 31 0 0,0
22.04.2018 06:00:00 12,1 10,3 8,8 15,0 12,3 4 2 9 5 OZO 1015,8 32 0 0,0
22.04.2018 05:00:00 12,0 9,6 8,8 15,1 12,3 3 2 8 4 O 1015,8 40 0 0,0
22.04.2018 04:00:00 12,2 9,4 8,8 15,1 12,3 7 4 9 5 OZO 1015,7 41 0 0,0
22.04.2018 03:00:00 13,1 10,1 8,7 15,2 12,3 0 0 9 5 N 1016,1 44 0 0,0
22.04.2018 02:00:00 14,1 10,9 9,3 15,2 12,3 6 3 9 5 O 1016,2 45 0 0,0
22.04.2018 01:00:00 15,0 11,0 9,7 15,2 12,3 0 0 9 5 N 1016,3 38 0 0,0
22.04.2018 00:00:00 16,1 12,5 12,0 15,2 12,3 6 3 12 6 OZO 1016,1 36 0 0,0
21.04.2018 23:00:00 15,3 11,7 10,2 15,1 12,3 10 5 13 7 OZO 1016,1 46 0 0,0
21.04.2018 22:00:00 17,2 12,5 10,8 15,1 12,3 2 1 3 2 ZO 1015,9 32 0 0,0
21.04.2018 21:00:00 20,5 13,0 13,4 14,9 12,3 0 0 5 3 N 1015,5 2,9 10 0,0
21.04.2018 20:00:00 24,9 10,0 21,6 14,7 12,3 3 2 14 7 Z 1015,2 49 15 0,0
21.04.2018 19:00:00 26,6 9,0 30,4 14,5 12,3 6 4 16 9 ZZO 1015,3 52 60 0,0
21.04.2018 18:00:00 27,1 9,0 34,8 14,3 12,2 6 3 16 9 ZZO 1015,7 55 60 0,0
21.04.2018 17:00:00 27,0 9,4 36,6 14,1 12,2 10 5 20 11 Z 1016,0 53 60 0,0
21.04.2018 16:00:00 26,2 11,1 37,4 14,0 12,2 13 7 26 14 OZO 1016,5 50 60 0,0
21.04.2018 15:00:00 25,1 12,3 36,7 13,9 12,2 13 7 24 13 O 1017,1 44 60 0,0
21.04.2018 14:00:00 23,8 12,4 33,8 13,9 12,2 13 7 29 16 O 1017,7 40 60 0,0
21.04.2018 13:00:00 22,4 12,3 33,4 13,9 12,2 16 9 26 14 OZO 1018,3 19 60 0,0
21.04.2018 12:00:00 20,9 11,5 28,7 13,9 12,2 14 8 27 15 O 1018,9 36 60 0,0
21.04.2018 11:00:00 18,9 11,5 25,2 13,9 12,2 16 8 24 13 OZO 1019,1 37 60 0,0
21.04.2018 10:00:00 16,3 11,4 16,9 14,1 12,2 9 5 18 10 OZO 1019,3 33 60 0,0
21.04.2018 09:00:00 13,7 10,5 9,8 14,1 12,2 10 5 13 7 O 1019,6 32 60 0,0
21.04.2018 08:00:00 10,6 9,8 5,0 14,2 12,2 5 3 7 4 O 1019,8 20 34 0,0
21.04.2018 07:00:00 9,7 8,9 4,8 14,3 12,2 7 4 9 5 O 1019,3 19 0 0,0
21.04.2018 06:00:00 9,6 8,5 5,4 14,4 12,2 7 4 12 7 OZO 1019,2 22 0 0,0
21.04.2018 05:00:00 10,4 9,0 5,6 14,4 12,2 8 4 11 6 ZO 1019,5 31 0 0,0
21.04.2018 04:00:00 10,5 8,6 5,4 14,5 12,2 2 1 7 4 Z 1019,9 31 0 0,0
21.04.2018 03:00:00 11,0 9,1 5,6 14,6 12,2 4 2 6 3 OZO 1019,9 35 0 0,0
21.04.2018 02:00:00 12,5 9,5 6,1 14,6 12,1 0 0 4 2 N 1020,3 42 0 0,0
21.04.2018 01:00:00 13,1 9,0 7,1 14,6 12,2 2 1 8 4 O 1020,3 47 0 0,0
21.04.2018 00:00:00 14,9 9,9 8,5 14,6 12,1 6 3 8 4 O 1020,4 54 0 0,0
20.04.2018 23:00:00 16,4 9,6 8,6 14,6 12,1 4 2 8 4 OZO 1020,3 38 0 0,0
20.04.2018 22:00:00 18,3 9,9 9,1 14,5 12,1 5 3 8 5 OZO 1019,9 39 0 0,0
20.04.2018 21:00:00 20,1 9,9 13,7 14,4 12,1 7 4 12 7 O 1019,3 59 25 0,0
20.04.2018 20:00:00 23,8 10,8 22,5 14,3 12,1 8 5 20 11 O 1018,8 60 60 0,0
20.04.2018 19:00:00 25,6 8,6 28,1 14,2 12,1 13 7 31 17 OZO 1018,9 60 60 0,0
20.04.2018 18:00:00 26,2 7,2 31,0 14,0 12,1 21 12 39 21 ZO 1019,0 49 60 0,0
20.04.2018 17:00:00 26,0 7,6 32,5 13,8 12,1 27 14 42 23 OZO 1019,4 32 60 0,0
20.04.2018 16:00:00 26,1 8,1 34,3 13,7 12,0 25 14 48 26 OZO 1020,0 33 60 0,0
20.04.2018 15:00:00 25,6 7,7 35,6 13,7 12,0 22 12 37 20 ZO 1020,5 36 60 0,0
20.04.2018 14:00:00 24,3 11,3 30,2 13,6 12,0 21 12 32 18 OZO 1020,9 37 60 0,0
20.04.2018 13:00:00 22,5 10,0 26,5 13,6 12,0 21 11 35 19 O 1021,8 39 50 0,0
20.04.2018 12:00:00 20,9 9,2 25,3 13,7 12,0 16 9 29 16 O 1022,2 60 47 0,0
20.04.2018 11:00:00 19,7 7,4 26,1 13,7 12,0 15 8 26 14 O 1022,3 20 54 0,0
20.04.2018 10:00:00 17,4 9,0 19,2 13,8 12,0 6 3 10 5 OZO 1022,4 35 60 0,0
20.04.2018 09:00:00 14,2 8,2 8,2 13,9 12,0 7 4 8 5 O 1022,5 56 44 0,0
20.04.2018 08:00:00 9,8 6,5 3,4 13,9 12,0 0 0 2 1 N 1022,4 47 32 0,0
20.04.2018 07:00:00 10,3 5,5 3,9 14,0 12,0 0 0 6 4 N 1022,0 46 0 0,0
20.04.2018 06:00:00 11,4 5,0 5,3 14,1 11,9 5 3 8 5 ZO 1021,8 60 0 0,0
20.04.2018 05:00:00 14,0 4,8 7,9 14,2 12,0 5 3 16 8 ZZO 1021,7 53 0 0,0
20.04.2018 04:00:00 14,1 5,2 7,5 14,2 12,0 10 5 16 8 ZO 1021,4 60 0 0,0
20.04.2018 03:00:00 15,1 5,0 9,4 14,3 12,0 13 7 16 9 OZO 1021,6 60 0 0,0
20.04.2018 02:00:00 14,6 5,7 8,8 14,3 11,9 11 6 18 10 OZO 1022,1 60 0 0,0
20.04.2018 01:00:00 14,5 5,8 8,7 14,3 11,9 11 6 16 9 OZO 1022,3 60 0 0,0
20.04.2018 00:00:00 15,9 6,3 12,1 14,3 11,9 14 7 19 10 O 1022,3 60 0 0,0
19.04.2018 23:00:00 16,9 6,4 12,9 14,3 11,9 14 7 22 12 OZO 1022,3 60 0 0,0
19.04.2018 22:00:00 19,7 6,1 16,7 14,3 11,9 16 9 29 16 OZO 1022,3 60 0 0,0
19.04.2018 21:00:00 21,2 5,9 18,8 14,2 11,9 21 11 35 19 OZO 1021,8 60 24 0,0
19.04.2018 20:00:00 23,1 5,0 21,8 14,1 11,9 24 13 42 23 OZO 1021,4 45 60 0,0
19.04.2018 19:00:00 24,5 4,8 25,3 14,0 11,9 29 16 47 26 OZO 1021,3 35 60 0,0
19.04.2018 18:00:00 25,5 7,6 29,7 13,8 11,9 26 14 51 28 OZO 1021,3 29 60 0,0
19.04.2018 17:00:00 25,8 10,0 32,0 13,7 11,8 28 15 50 27 OZO 1021,3 26 60 0,0
19.04.2018 16:00:00 26,1 8,6 33,2 13,6 11,8 29 16 53 28 ZO 1021,6 28 60 0,0
19.04.2018 15:00:00 26,0 9,3 33,7 13,6 11,9 35 19 56 30 OZO 1022,1 31 60 0,0
19.04.2018 14:00:00 25,7 8,2 34,0 13,5 11,8 31 17 55 30 OZO 1022,5 34 60 0,0
19.04.2018 13:00:00 24,6 9,7 31,9 13,5 11,8 25 14 39 21 OZO 1023,1 36 60 0,0
19.04.2018 12:00:00 22,6 10,1 28,3 13,6 11,8 20 11 36 19 O 1023,7 51 60 0,0

tt = temperatuur
td = dauwpunt
tt 5cm = temperatuur 5cm
tt -20cm = temperatuur -20cm
tt -100cm = temperatuur -100cm
ff = windsnelheid
fx = windstoten
dd = windrichting
ppp = luchtdruk
vv = zicht
sd = Zonneschijnduur
rr = neerslag

Weerstations in de omgeving